Погода в Тургеневе

Россия / Саратовская область     51°54′35″N   44°57′56″E
темп.,
°C
ветер,
м/с
пор.,
м/с
влажн.,
%
обл.,
%
осадки,
мм/ч
давл.,
гПа
погр.,
м
19 сентября, вс
вс1901:00+7в4959100 0.0 1024304
04:00+5в4964100 0.0 1024266
07:00+5вюв496799 0.0 1024291
10:00+9юв675099 0.0 1024659
13:00+11юв4644100 0.0 1023875
16:00+12вюв4742100 0.0 1022823
19:00+12вюв4839100 0.0 1021371
22:00+11в71240100 0.0 1021482
20 сентября, пн
пн2001:00+10вюв71438100 0.0 1020542
04:00+10вюв71438100 0.0 1019538
07:00+9вюв71444100 0.2 1019556
10:00+9вюв91741100 0.4 1017670
13:00+9юв91558100 0.7 1017936
16:00+8вюв81686100 5.1 1017754
19:00+8вюв81587100 0.6 1017579
22:00+9вюв71583100 0.6 1017507
21 сентября, вт
вт2101:00+9вюв61384100 4.1 1017480
04:00+9вюв6128592 4.9 1016365
07:00+8в5118196 0.0 1015313
10:00+11вюв6865100 0.0 1014389
13:00+17юв5656100 0.1 1013765
16:00+18ююв6759100 0.9 1011875
19:00+14юв3680100 2.3 1011125
22:00+13ююв4988100 3.3 1011305
22 сентября, ср
ср2201:00+13ююв2496100 0.8 1010151
04:00+12юз2597100 5.1 1009278
07:00+12зюз3695100 4.1 1009291
10:00+13зюз34746 4.1 1010631
13:00+16юз455684 0.0 10111512
16:00+16ююз464725 0.0 10111735
19:00+11з476845 0.0 1014213
22:00+9з3378100 0.0 101547
23 сентября, чт
чт2301:00+9сз117290 0.0 101610
04:00+10всв1169100 0.0 101617
07:00+10юв2267100 0.0 101735
10:00+12ююв2357100 0.0 1017330
13:00+16юв3544100 0.0 10161971
16:00+16вюв5556100 0.0 1016899
19:00+12вюв3691100 0.0 1017201
22:00+13вюв61171100 0.3 1016521